Location: Saint-Restitut
(44.3351°N, 4.7915°E)
Time: 02:16:25
(UTC+00:00)

ATLAS CENTAUR R/B - Pass Details

Date: 03 February 2023
Orbit: 450 x 653 km, 64.7° (Epoch: 19 March)

Event Time Altitude Azimuth Distance (km) Brightness Sun altitude
Rises 18:55:23 0° 282° (WNW) 2,961 6.4 -22.2°
Reaches altitude 10° 19:00:20 10° 327° (NNW) 2,008 4.6 -23.1°
Maximum altitude 19:00:44 10° 332° (NNW) 1,997 4.5 -23.1°
Drops below altitude 10° 19:01:07 10° 337° (NNW) 1,999 4.4 -23.2°
Enters shadow 19:03:30 - 5° (N) 2,261 4.4 -23.6°
